Regional Weather Roundup
Issued by NWS

Home | Current Version | Previous Version | Text Only | Print | Product List | Glossary Off
Versions: 1 2 3 4 5 6 7 8 9 10 11 12 13 14 15 16 17 18 19 20 21 22 23 24 25 26 27 28 29 30 31 32 33 34 35 36 37 38 39 40 41 42 43 44 45 46 47 48 49 50

000
ASUS43 KDMX 162001
RWRIA

WEATHER ROUNDUP FOR IOWA
NATIONAL WEATHER SERVICE DES MOINES IA
200 PM CST SAT DEC 16 2017

NOTE: "FAIR" INDICATES FEW OR NO CLOUDS BELOW 12,000 FEET WITH NO
SIGNIFICANT WEATHER AND/OR OBSTRUCTIONS TO VISIBILITY.

* - THESE STATIONS ARE NOT NWS STATIONS...THUS NOT UNDER NWS
QUALITY CONTROL.  THEY ALSO DO NOT REPORT WEATHER SUCH
AS PRECIPITATION OR FOG.

IAZ001>003-012>014-020>022-031>034-043>046-162100-
   NORTHWEST IOWA

CITY           SKY/WX    TMP DP  RH WIND       PRES   REMARKS
CARROLL *      MOSUNNY   52  28  40 N8        29.84R
CHEROKEE *     MOSUNNY   47  29  50 NW3       29.86R
LE MARS *      CLOUDY    46  30  53 N8        29.87R
ORANGE CITY *  MOSUNNY   45  32  61 N8        29.86R
SHELDON *      MOSUNNY   45  30  57 N9        29.84S
SIOUX CITY     MOSUNNY   49  30  48 NW7       29.87S
SPENCER        CLOUDY    47  31  53 N12       29.85R
STORM LAKE *   CLOUDY    48  28  46 N9        29.85R
$$

IAZ055>058-069>071-079>083-090>094-162100-
   SOUTHWEST IOWA

CITY           SKY/WX    TMP DP  RH WIND       PRES   REMARKS
ATLANTIC *     SUNNY     52  25  35 N5        29.83S
AUDUBON *      PTSUNNY   52  27  37 CALM      29.84S
CLARINDA *     SUNNY     52  25  35 VRB5        N/A
COUNCIL BLFS * MOSUNNY   52  27  37 N10       29.82S
CRESTON *      SUNNY     52  25  35 VRB6      29.85S
HARLAN  *      MOSUNNY   52  27  37 N9        29.87S
LAMONI         SUNNY     51  26  37 SW8       29.85R
RED OAK *      SUNNY     54  25  32 CALM      29.84S
SHENANDOAH *   SUNNY     52  25  35 CALM      29.85S
$$

IAZ047>049-059>061-072>074-084-162100-
   CENTRAL IOWA

CITY           SKY/WX    TMP DP  RH WIND       PRES   REMARKS
AMES           MOSUNNY   51  28  41 CALM      29.83S
ANKENY *       SUNNY     52  27  37 CALM      29.85R
BOONE *        CLOUDY    50  28  43 W6        29.83R
CHARITON *     SUNNY     52  27  37 SW8       29.85R
DES MOINES     CLOUDY    53  26  35 SW3       29.85R
GRINNELL*      SUNNY     50  27  40 SW6       29.85R
KNOXVILLE *    SUNNY     52  25  35 SW8       29.84R
MARSHALLTOWN   SUNNY     52  27  38 W5        29.82S
NEWTON *       SUNNY     50  27  40 SW8       29.84R
PELLA *        SUNNY     53  25  33 W3        29.86R
PERRY *          N/A     50  22  33 NW3       29.84R
$$

IAZ004>006-015-016-023>025-035-036-162100-
   NORTH CENTRAL IOWA

CITY           SKY/WX    TMP DP  RH WIND       PRES   REMARKS
ALGONA *       CLOUDY    45  32  61 N10       29.84S
CLARION *      MOSUNNY   46  30  53 VRB3      29.84R
ESTHERVILLE    CLOUDY    44  31  60 N13       29.85R
FORT DODGE *   MOSUNNY   50  29  44 N7        29.85R
MASON CITY     PTSUNNY   46  28  49 N7        29.85R
FOREST CITY *    N/A     43  30  61 N8        29.84R
WEBSTER CITY * MOSUNNY   50  28  43 N5        29.82S
IOWA FALLS *     N/A     51  29  42 W3        29.84R
$$

IAZ007>011-017>019-026>030-037>042-050>054-066-162100-
   NORTHEAST IOWA

CITY           SKY/WX    TMP DP  RH WIND       PRES   REMARKS
CEDAR RAPIDS   SUNNY     50  26  39 CALM      29.83S
CHARLES CITY * CLOUDY    45  28  53 CALM      29.84R
CLINTON *      SUNNY     48  27  44 W7        29.87R
DECORAH *      MOSUNNY   39  28  65 E5        29.84R
DUBUQUE        SUNNY     44  26  49 CALM      29.85S
MONTICELLO *   SUNNY     48  27  43 CALM      29.85R
OELWEIN *      MOSUNNY   46  27  46 S6        29.84R
WATERLOO       SUNNY     49  26  41 CALM      29.84R
$$

IAZ064-065-067-068-078-162100-
   EAST CENTRAL IOWA

CITY           SKY/WX    TMP DP  RH WIND       PRES   REMARKS
DAVENPORT      SUNNY     49  25  39 S7        29.88R
IOWA CITY      SUNNY     52  27  38 VRB5      29.87R
MT. PLEASANT * SUNNY     53  25  33 S12       29.86S
MUSCATINE *    SUNNY     52  27  37 S6        29.86S
QUAD CITIES    SUNNY     52  27  38 W7        29.86R
$$

IAZ062-063-075>077-085>089-095>099-162100-
   SOUTHEAST IOWA

CITY           SKY/WX    TMP DP  RH WIND       PRES   REMARKS
BURLINGTON     SUNNY     53  28  38 S13       29.86S
FAIRFIELD *    SUNNY     54  25  32 SW10      29.85R
FORT MADISON * SUNNY     54  28  37 S9        29.87S
KEOKUK *       SUNNY     55  27  33 SW12      29.86F
OSKALOOSA *      N/A     52  27  37 SW9       29.85R
OTTUMWA        SUNNY     52  25  35 SW7       29.85R
WASHINGTON *   SUNNY     52  27  37 SW8G16    29.86R
$$

ABBREVIATIONS USED IN REMARKS
   TC - TEMPERATURES IN CELSIUS
  WCI - WIND CHILL INDEX
   HX - HEAT INDEX
  VSB - VISIBILITY
$$





USA.gov is the U.S. government's official web portal to all federal, state and local government web resources and services.